Tracking 27126 objects as of 30-Mar-2023
HD Live streaming from Space Station
objects crossing your sky now

COSMOS 397 DEB *

Track COSMOS 397 DEB * now!
10-day predictions


NORAD ID: 5414
Int'l Code: 1971-015BL
Perigee: 831.3 km
Apogee: 955.3 km
Inclination: 66.8 °
Period: 102.7 minutes
Semi major axis: 7264 km
RCS: 0.0112 m2 (small)
Launch date: February 25, 1971
Source: Commonwealth of Independent States (former USSR) (CIS)
Launch site: TYURATAM MISSILE AND SPACE COMPLEX (TTMTR)

Note: This is SATELLITE DEBRIS
Your satellite tracking list
Your tracking list is empty




NASA's NSSDC Master Catalog

Two Line Element Set (TLE):
1 05414U 71015BL  23088.73882113  .00000330  00000-0  25875-3 0  9998
2 05414  66.7659 105.4648 0085311 347.0055  12.8830 14.02204606660453
Source of the keplerian elements: AFSPC